Theta_e
326 326 325 325 324 324 324 324 321 315 311 311 311 309 308 307 306 304 302 300 299 299 299 298 298 298 298 298 298 298 298 298 297 297 297 297 298 299 298 297 296 296
325 325 324 324 323 323 323 322 321 316 311 310 309 308 306 305 303 301 299 299 298 298 298 298 298 298 298 298 298 298 298 298 297 297 297 297 298 299 299 297 296 296
324 324 323 323 322 322 322 321 321 317 311 308 307 305 304 302 300 299 298 298 298 298 298 298 298 298 298 298 298 298 298 298 297 297 296 297 297 297 298 297 296 296
324 323 322 322 322 322 321 320 320 315 309 307 305 302 301 300 298 298 298 298 298 298 298 298 298 298 298 298 298 298 298 298 297 297 296 296 297 297 297 297 296 295
322 322 322 321 321 320 320 319 317 311 306 304 302 300 299 298 298 298 298 298 298 297 297 297 298 298 298 298 298 297 297 297 297 297 296 296 297 297 297 296 295 295
321 320 320 320 320 319 318 316 312 307 303 301 300 299 298 298 298 297 297 298 297 297 297 298 298 298 298 298 297 297 296 297 298 298 297 296 296 296 296 295 295 295
319 318 319 319 318 317 315 311 306 303 301 300 299 298 297 297 297 297 297 297 297 297 297 297 298 298 298 298 297 297 297 298 299 298 297 296 296 295 295 295 294 294
317 317 317 316 315 313 310 306 302 300 299 299 298 298 297 297 297 297 297 297 297 297 297 297 297 297 297 297 297 297 297 298 297 297 297 296 295 294 294 294 294 294
316 315 314 312 310 308 305 302 300 299 299 298 297 297 297 297 297 297 297 297 297 297 297 297 297 297 296 296 297 297 298 298 297 296 297 296 295 294 294 294 294 294
314 313 311 308 306 304 302 300 299 298 298 297 297 297 297 297 297 297 297 297 297 297 297 297 297 296 296 296 297 297 299 299 297 296 296 296 295 295 294 294 294 294
312 311 309 306 304 301 300 299 298 298 297 297 297 297 297 297 297 297 297 297 297 297 297 297 297 296 296 296 297 297 299 299 297 296 296 297 297 296 295 294 295 295
311 309 307 304 301 299 298 298 297 297 297 297 297 297 297 297 297 297 297 297 297 297 297 296 296 296 296 296 296 297 298 298 296 296 298 299 299 298 297 296 296 297
309 307 303 301 299 298 298 297 297 296 296 297 297 297 297 297 297 297 297 297 297 297 296 296 296 296 296 296 296 296 297 297 296 297 299 300 300 299 298 298 298 298
307 304 301 299 298 298 298 297 296 296 296 297 296 296 297 297 297 297 297 297 297 296 296 296 296 296 295 295 296 296 297 297 297 298 299 300 299 299 299 299 298 298
304 301 300 299 298 298 298 297 296 296 296 296 296 296 296 297 297 297 296 296 296 296 296 296 295 296 295 295 295 295 296 297 297 298 299 300 299 299 299 299 298 298
302 300 299 299 298 298 298 297 296 296 296 296 296 296 296 297 297 296 296 296 296 296 296 296 295 295 295 295 295 295 296 297 296 297 298 299 299 298 299 299 298 298
300 299 299 298 298 298 297 297 296 296 296 296 296 296 296 296 296 296 296 296 296 295 295 295 295 295 295 295 295 295 296 297 297 297 298 298 297 298 299 298 298 298
299 299 298 298 298 298 297 297 296 296 296 296 296 296 296 296 296 296 296 295 295 295 295 295 295 295 295 294 295 295 296 297 298 298 298 298 297 297 298 298 298 297
299 298 298 298 298 297 297 297 296 296 296 296 296 296 296 296 296 295 296 296 295 295 295 295 295 294 294 294 294 295 296 296 297 298 299 298 296 297 298 298 297 295
298 298 298 298 297 297 297 297 296 296 296 296 296 296 296 295 295 295 296 295 295 295 295 295 295 294 294 293 293 293 294 295 296 297 299 298 297 296 297 297 296 294
298 298 298 298 297 296 296 296 295 295 296 296 295 295 295 295 295 295 296 295 295 295 294 294 294 294 293 293 293 293 293 294 295 297 298 298 297 296 296 296 294 293
298 297 298 297 296 296 295 295 295 295 295 295 295 295 295 295 295 295 295 295 294 294 294 294 294 293 293 293 293 293 293 293 294 296 296 297 296 295 295 294 293 293
297 297 298 297 296 295 295 295 295 295 295 295 295 295 295 295 295 295 294 294 294 293 293 294 293 293 293 293 293 293 292 292 293 294 295 295 295 294 294 293 293 293
297 297 297 297 296 295 295 295 295 295 295 295 295 295 295 294 294 294 294 294 293 293 293 293 293 293 293 293 293 293 292 292 292 292 293 293 293 293 293 293 293 293
297 297 297 296 295 294 295 295 295 295 295 295 294 294 294 294 294 294 294 293 293 293 293 294 294 294 293 293 293 292 292 292 293 293 293 293 293 293 293 293 293 292
297 297 297 295 294 294 295 295 295 294 294 294 294 294 294 294 294 294 294 294 294 293 294 294 294 294 293 293 293 293 293 293 293 293 293 293 293 293 293 292 292 292
Wind_Speed
14 13 13 12 11 9 9 7 6 10 12 11 11 10 9 8 7 6 6 5 5 5 4 4 4 4 4 3 3 3 4 5 7 8 6 7 8 9 11 12 11 12
15 14 13 13 12 10 9 7 6 8 10 11 10 9 8 8 7 7 6 6 6 6 5 5 5 5 4 4 2 3 4 5 7 7 6 6 8 10 12 12 12 12
16 15 14 13 12 11 10 9 7 8 11 11 11 9 9 8 8 8 8 8 7 6 6 5 5 5 4 4 3 3 4 5 7 7 5 6 7 10 13 12 11 12
17 16 16 15 13 13 12 11 9 10 12 12 11 10 10 9 9 9 9 8 7 7 6 6 5 5 4 4 3 3 4 5 7 7 5 6 8 11 12 11 11 12
18 17 17 15 15 15 13 11 11 13 14 13 12 11 10 10 9 9 9 8 8 6 6 5 5 4 4 3 3 3 4 5 6 6 5 8 11 12 12 11 12 12
18 17 17 16 16 15 14 12 14 15 14 13 13 12 11 10 9 9 9 8 7 6 5 4 3 3 3 3 3 3 4 4 5 6 7 10 12 12 11 12 12 12
17 17 17 16 16 15 14 15 16 16 14 13 13 12 11 11 10 9 9 7 7 6 4 4 3 3 2 2 2 3 3 4 5 7 9 10 12 12 12 13 13 13
16 16 16 16 16 16 17 18 17 15 15 14 13 13 12 10 9 9 9 8 7 7 6 5 4 3 2 2 1 2 3 4 6 8 9 10 11 12 13 13 14 15
14 15 15 16 18 19 18 18 16 16 15 14 14 13 11 10 10 9 9 9 8 7 6 5 4 3 2 2 1 1 2 4 7 8 9 10 11 12 14 15 17 19
14 15 16 18 19 19 18 17 17 16 15 14 13 11 10 11 10 10 9 8 8 7 6 5 4 3 2 2 1 2 3 5 7 9 9 9 10 12 15 17 20 22
15 16 18 19 19 18 18 17 17 16 15 14 12 11 11 11 11 10 9 8 7 7 5 4 4 3 3 2 2 2 3 5 7 8 9 9 10 13 16 18 20 22
16 18 19 20 19 18 18 18 17 16 15 13 11 11 11 11 11 10 9 8 7 6 5 4 3 3 3 2 2 3 3 5 6 7 8 8 9 11 15 17 18 21
19 20 20 20 19 19 19 18 18 16 15 13 12 12 12 11 11 10 9 8 7 6 5 4 3 3 3 3 2 2 2 4 6 7 7 6 6 8 13 16 17 19
21 21 21 20 20 19 19 19 18 17 15 14 13 13 12 12 11 10 9 8 7 6 5 4 4 3 3 3 2 2 2 3 5 7 6 4 4 7 10 13 15 18
23 22 21 21 21 20 20 19 18 17 16 15 14 13 13 12 11 10 9 8 7 6 5 4 4 3 3 3 3 3 2 3 5 6 4 3 4 5 7 10 13 17
24 23 23 23 22 21 21 20 19 18 16 15 15 14 13 12 11 10 9 8 7 6 5 5 4 4 4 4 4 3 3 4 5 6 5 3 4 5 6 9 11 16
25 25 24 23 23 22 21 21 19 18 17 16 16 15 13 12 11 10 9 8 7 6 6 5 5 5 5 4 4 4 4 4 5 6 5 3 3 4 6 8 11 15
26 26 25 24 24 23 22 21 19 18 17 16 16 15 14 13 12 11 10 9 8 7 6 6 6 6 5 5 4 3 3 3 4 3 3 2 2 3 4 7 11 14
27 27 26 26 25 24 23 22 20 18 17 16 17 16 15 13 12 11 10 9 8 7 7 7 6 6 6 5 4 3 1 1 2 3 2 2 2 2 3 6 10 13
28 27 27 26 25 25 24 22 20 19 17 16 17 16 15 14 13 12 11 10 9 8 7 7 7 7 7 7 5 3 1 1 2 3 3 3 3 3 2 5 8 10
29 28 28 27 26 25 24 23 21 19 18 18 17 16 14 13 13 12 11 10 9 9 8 8 9 8 8 7 6 5 3 1 3 4 4 4 4 4 4 6 6 8
30 29 28 27 26 24 24 23 21 20 19 18 18 18 16 14 13 12 11 11 11 10 9 9 9 9 8 8 7 7 6 3 2 3 4 4 5 5 6 7 7 8
31 30 29 28 26 25 24 23 22 21 20 19 19 19 17 15 14 14 12 12 12 11 10 10 10 9 9 8 8 8 8 5 3 1 2 4 4 5 6 7 7 8
31 30 29 29 27 26 25 24 23 22 21 19 19 19 18 17 16 15 14 13 13 13 12 11 11 10 10 9 9 9 8 6 5 2 0 2 2 3 4 5 6 8
31 30 29 29 28 27 26 25 23 22 21 20 20 20 20 19 17 16 16 15 14 14 13 12 11 11 11 10 10 9 8 7 6 4 3 3 4 4 5 6 7 9
31 29 29 29 28 28 26 24 23 23 22 21 21 21 21 19 18 17 16 16 15 14 13 12 12 11 10 10 10 9 8 8 7 6 7 7 8 8 7 7 9 11
Wind_Direction
207 213 220 225 224 229 239 232 199 187 184 181 183 185 184 188 192 199 209 210 209 207 197 179 159 153 147 133 116 90 74 67 68 65 53 46 45 48 55 57 51 45
210 214 219 221 220 221 226 222 205 194 188 182 182 184 184 189 192 196 201 199 196 188 178 171 158 151 142 130 112 82 71 66 72 69 52 48 43 45 56 58 53 48
210 214 217 219 222 224 223 224 221 203 190 183 182 185 188 191 191 192 193 190 188 179 170 168 158 149 140 127 106 78 70 65 71 69 54 49 43 46 57 60 56 53
211 213 216 220 224 226 225 229 226 200 187 183 182 186 192 194 191 190 189 184 181 174 165 162 158 150 137 122 102 78 70 64 67 66 56 54 51 54 61 61 58 57
214 216 218 221 224 227 229 231 215 191 183 182 183 188 194 193 190 187 185 180 174 167 159 157 154 146 134 120 103 84 74 67 67 62 54 56 55 55 59 58 56 56
218 218 218 221 226 230 229 213 194 182 180 183 185 190 193 191 187 181 178 173 164 159 153 148 140 131 124 108 98 91 81 73 68 59 52 55 56 53 53 53 53 53
221 221 220 224 225 222 208 189 179 178 181 186 189 191 192 189 183 173 166 160 153 149 145 137 122 107 91 75 84 97 91 75 61 59 59 60 59 53 49 50 51 49
222 220 218 216 208 197 185 176 175 179 185 190 193 193 189 183 176 166 158 153 150 148 146 139 123 101 77 54 58 92 91 73 55 55 62 67 64 55 50 48 46 44
212 206 198 191 183 177 174 174 177 184 189 194 196 192 183 174 168 163 158 154 153 151 148 142 126 109 88 58 31 46 64 64 58 56 62 68 63 54 48 44 40 38
196 190 183 177 172 170 172 176 181 186 191 196 196 187 175 168 165 163 160 156 153 150 146 142 135 127 111 78 39 39 44 50 57 60 66 68 60 50 43 38 36 32
190 186 179 173 170 171 174 178 183 189 193 196 195 181 169 168 167 163 160 157 154 150 146 145 144 133 113 92 67 59 47 42 53 65 72 66 52 44 38 32 30 24
189 183 176 173 172 174 177 182 187 191 193 193 190 180 172 172 170 165 162 160 157 152 147 142 135 120 105 94 82 70 51 42 55 71 71 57 42 38 31 23 21 16
185 179 175 174 175 177 181 186 191 193 193 188 182 178 178 176 171 167 165 161 157 151 143 132 121 116 106 101 91 73 58 51 62 74 71 54 34 30 22 14 13 9
182 177 176 177 179 182 185 189 192 193 191 185 177 178 181 178 171 169 166 161 154 145 136 124 114 115 109 107 99 82 78 67 71 79 78 59 29 20 15 6 3 2
180 178 179 182 184 186 187 189 192 192 191 184 178 179 182 177 171 169 163 156 150 139 131 123 114 117 117 108 103 100 104 89 83 94 96 58 24 13 7 0 356 357
181 180 182 185 187 189 190 191 192 192 191 185 180 182 183 177 171 167 158 151 146 136 130 125 119 123 121 110 104 108 116 109 98 102 100 55 8 2 2 356 353 356
183 184 186 188 189 190 191 192 192 192 190 185 182 185 182 175 171 165 157 151 144 136 131 128 127 124 119 113 111 112 125 130 116 102 93 64 12 7 2 351 351 356
186 188 189 191 192 192 193 194 193 194 191 184 182 184 180 173 170 164 157 150 143 140 139 134 130 124 116 113 114 114 126 139 135 121 103 60 22 31 16 353 351 355
190 192 193 194 193 193 195 195 195 196 193 183 181 183 178 171 167 163 157 150 144 144 142 136 127 118 111 105 103 108 114 134 148 155 187 266 332 26 33 5 356 358
193 195 196 196 195 195 196 196 197 197 192 183 182 182 176 168 165 161 154 147 144 140 136 130 121 112 107 100 93 90 86 211 201 200 219 253 299 331 343 351 359 8
195 197 198 198 196 195 195 195 196 195 190 184 182 182 176 167 162 158 151 145 140 135 131 125 116 108 103 98 93 86 82 142 203 211 225 252 284 303 315 333 359 20
197 198 199 199 196 195 194 192 192 192 188 182 180 180 175 166 159 155 149 144 137 132 129 122 114 109 104 99 94 87 81 92 162 200 223 254 276 294 320 339 1 22
199 200 200 200 198 195 193 190 190 190 188 181 178 177 172 164 157 151 147 143 136 131 128 122 117 113 106 99 92 84 78 77 89 165 234 263 281 308 336 352 14 30
200 202 201 200 198 194 191 190 188 189 188 180 174 172 168 161 156 150 145 142 138 133 130 125 120 115 108 99 90 81 73 67 62 58 263 268 295 337 4 27 47 43
201 202 202 200 196 192 191 190 188 186 185 178 170 168 165 159 156 152 146 142 139 134 130 124 117 110 103 95 87 80 72 63 54 56 75 80 79 81 78 73 64 47
201 201 201 198 194 191 190 189 186 183 180 174 167 163 162 158 154 151 145 140 136 130 125 119 111 101 94 86 80 76 72 66 60 64 75 79 82 89 88 76 60 45